Location: Tuolumne
(37.9608°N, 120.2374°W)
Time: 15:29:53
(UTC+00:00)

Cosmos 2208 Rocket - Pass Details

Date: 03 August 2024
Orbit: 751 x 803 km, 74.0° (Epoch: 09 September)

Event Time Altitude Azimuth Distance (km) Brightness Sun altitude
Exits shadow 12:17:33 10° 219° (SW) 2,274 5.9 -9.4°
Reaches altitude 10° 12:17:34 10° 219° (SW) 2,270 5.9 -9.4°
Maximum altitude 12:22:30 46° 292° (WNW) 1,005 4.4 -8.6°
Drops below altitude 10° 12:27:27 10° 6° (N) 2,281 7.0 -7.7°
Sets 12:29:55 0° 12° (NNE) 3,212 7.9 -7.3°
